Weather History for West Plains, MO

Change the Weather History Date:

Tuesday, November 12, 2013

  Actual Average Record
Temperature  
Mean Temperature 31 °F 48 °F  
Max Temperature 40 °F 59 °F 84 °F (1989)
Min Temperature 21 °F 38 °F 16 °F (1950)
Degree Days  
Heating Degree Days 34 17  
Month to date heating degree days 202 176  
Since 1 July heating degree days 475 479  
Cooling Degree Days 0 0  
Month to date cooling degree days 0 0  
Year to date cooling degree days 1073 1352  
Moisture  
Dew Point 19 °F    
Average Humidity 58    
Maximum Humidity 89    
Minimum Humidity 27    
Precipitation  
Precipitation 0.00 in 0.15 in 1.67 in (1992)
Month to date precipitation 1.34 1.72  
Year to date precipitation 48.73 39.72  
Sea Level Pressure  
Sea Level Pressure 30.63 in    
Wind  
Wind Speed 11 mph (North)    
Max Wind Speed 23 mph    
Max Gust Speed 31 mph    
Visibility 10 miles    
Events      
T = Trace of Precipitation, MM = Missing Value Source: NWS Daily Summary

Daily Weather History Graph

Daily Weather History Graph

Search for Another Location

Airport:

Trip Planner

Search our weather history database for the weather conditions in past years. The results will help you decide how hot, cold, wet, or windy it might be!

Date:

Astronomy

Nov. 12, 2013 Rise Set
Actual Time 6:43 AM CST 5:00 PM CST
Civil Twilight 6:15 AM CST 5:27 PM CST
Nautical Twilight 5:44 AM CST 5:58 PM CST
Astronomical Twilight 5:13 AM CST 6:29 PM CST
Moon 2:08 PM CST (11/12) 1:40 AM CST (11/12)
Length of Visible Light 11h 12m
Length of Day
10h 17m
Waxing Gibbous, 76% of the Moon is Illuminated
Nov 12
Waxing Gibbous
Nov 17
Full
Nov 25
Last Quarter
Dec 2
New
Dec 9
First Quarter

Hourly Weather History & Observations

Time (CST) Temp. Windchill Dew Point Humidity Pressure Visibility Wind Dir Wind Speed Gust Speed Precip Events Conditions
12:53 AM 39.0 °F 31.0 °F 35.1 °F 86% 30.41 in 10.0 mi North 13.8 mph 25.3 mph 0.00 in   Overcast
1:17 AM 37.0 °F 27.4 °F 33.1 °F 86% 30.42 in 10.0 mi North 17.3 mph 25.3 mph N/A   Overcast
1:33 AM 37.0 °F 28.1 °F 32.0 °F 82% 30.43 in 10.0 mi North 15.0 mph 28.8 mph N/A   Overcast
1:53 AM 36.0 °F 27.1 °F 32.0 °F 86% 30.44 in 10.0 mi North 13.8 mph 26.5 mph N/A   Overcast
2:29 AM 34.0 °F 24.6 °F 30.0 °F 85% 30.47 in 10.0 mi North 13.8 mph 24.2 mph N/A   Overcast
2:53 AM 33.1 °F 21.5 °F 28.0 °F 82% 30.49 in 10.0 mi North 19.6 mph 27.6 mph N/A   Overcast
3:53 AM 32.0 °F 22.1 °F 27.0 °F 82% 30.52 in 10.0 mi NNE 13.8 mph 27.6 mph N/A   Overcast
4:53 AM 30.0 °F 17.2 °F 25.0 °F 82% 30.56 in 10.0 mi NNE 20.7 mph 26.5 mph N/A   Overcast
5:09 AM 30.0 °F 19.1 °F 24.1 °F 79% 30.55 in 10.0 mi North 15.0 mph 25.3 mph N/A   Overcast
5:53 AM 30.0 °F 19.1 °F 21.9 °F 72% 30.60 in 10.0 mi North 15.0 mph 21.9 mph N/A   Overcast
6:53 AM 28.9 °F 17.7 °F 19.9 °F 69% 30.64 in 10.0 mi NNE 15.0 mph 27.6 mph N/A   Overcast
7:31 AM 28.9 °F 18.2 °F 19.0 °F 67% 30.65 in 10.0 mi North 13.8 mph 24.2 mph N/A   Scattered Clouds
7:53 AM 28.0 °F 16.1 °F 18.0 °F 66% 30.68 in 10.0 mi North 16.1 mph 23.0 mph N/A   Partly Cloudy
8:53 AM 30.9 °F 19.4 °F 18.0 °F 59% 30.70 in 10.0 mi North 17.3 mph - N/A   Clear
9:53 AM 33.1 °F 23.0 °F 16.0 °F 50% 30.72 in 10.0 mi North 15.0 mph - N/A   Clear
10:53 AM 35.1 °F 25.9 °F 14.0 °F 42% 30.72 in 10.0 mi North 13.8 mph - N/A   Clear
11:53 AM 37.0 °F 28.9 °F 12.9 °F 37% 30.70 in 10.0 mi North 12.7 mph 20.7 mph N/A   Clear
12:53 PM 39.0 °F 32.8 °F 10.9 °F 32% 30.69 in 10.0 mi North 9.2 mph 18.4 mph N/A   Clear
1:53 PM 39.0 °F 31.8 °F 10.9 °F 32% 30.68 in 10.0 mi NNE 11.5 mph - N/A   Clear
2:53 PM 39.0 °F 32.8 °F 9.0 °F 29% 30.69 in 10.0 mi North 9.2 mph 18.4 mph N/A   Clear
3:53 PM 37.0 °F 29.3 °F 9.0 °F 31% 30.70 in 10.0 mi North 11.5 mph - N/A   Clear
4:53 PM 33.1 °F 24.9 °F 8.1 °F 35% 30.70 in 10.0 mi North 10.4 mph - N/A   Clear
5:53 PM 30.9 °F 25.2 °F 10.0 °F 42% 30.70 in 10.0 mi North 5.8 mph - N/A   Clear
6:53 PM 28.9 °F 23.9 °F 10.9 °F 47% 30.70 in 10.0 mi North 4.6 mph - N/A   Clear
7:53 PM 28.0 °F 22.8 °F 10.9 °F 49% 30.71 in 10.0 mi North 4.6 mph - N/A   Clear
8:53 PM 25.0 °F 19.3 °F 12.9 °F 60% 30.73 in 10.0 mi NNW 4.6 mph - N/A   Clear
9:53 PM 25.0 °F 20.7 °F 12.9 °F 60% 30.72 in 10.0 mi NNW 3.5 mph - N/A   Clear
10:53 PM 23.0 °F - 12.9 °F 65% 30.72 in 10.0 mi Calm Calm - N/A   Clear
11:53 PM 23.0 °F 18.4 °F 12.9 °F 65% 30.71 in 10.0 mi NNW 3.5 mph - N/A   Clear